Regional Weather Roundup
Issued by NWS

Home | Current Version | Previous Version | Graphics & Text | Print | Product List | Glossary On
Versions: 1 2 3 4 5 6 7 8 9 10 11 12 13 14 15 16 17 18 19 20 21 22 23 24 25 26 27 28 29 30 31 32 33 34 35 36 37 38 39 40 41 42 43 44 45 46 47 48 49 50
000
ASUS43 KLOT 132108
RWRIL

ILLINOIS REGIONAL WEATHER ROUNDUP
NATIONAL WEATHER SERVICE CHICAGO/ROMEOVILLE IL
300 PM CST SAT FEB 13 2016

NOTE: "FAIR" INDICATES FEW OR NO CLOUDS BELOW 12,000 FEET WITH NO
SIGNIFICANT WEATHER AND/OR OBSTRUCTIONS TO VISIBILITY.

* THESE STATIONS ARE NOT UNDER NWS QUALITY CONTROL. THEY ALSO MAY NOT
  REPORT WEATHER SUCH AS PRECIPITATION OR FOG.

ILZ001-002-007-009-015-016-024-132200-
NORTHWEST ILLINOIS

CITY           SKY/WX    TMP DP  RH WIND       PRES   REMARKS
MOLINE         CLOUDY    19  -6  33 SW6       30.55F WCI  11
STERLING*      SUNNY     18  -4  38 N8        30.53F WCI   7
SAVANNA*       CLOUDY    17  -7  34 W5        30.55F WCI  10
$$

ILZ003-004-008-010-011-017-018-132200-
NORTH CENTRAL ILLINOIS

CITY           SKY/WX    TMP DP  RH WIND       PRES   REMARKS
ROCKFORD       MOSUNNY   16  -7  35 VRB5      30.55F WCI   9
FREEPORT*      SUNNY     13  -6  42 W3        30.55F
ROCHELLE*      SUNNY     16  -2  44 NW8       30.54F WCI   6
DE KALB*       SUNNY     16  -4  40 NW6       30.52F WCI   7
$$

ILZ005-006-012>014-019>023-132200-
NORTHEAST ILLINOIS

CITY           SKY/WX    TMP DP  RH WIND       PRES   REMARKS
CHICAGO-OHARE  MOSUNNY   17  -5  37 NW9       30.53S WCI   6
CHICAGO-MIDWAY MOSUNNY   19  -8  30 NW9G16    30.54S WCI   8
AURORA         SUNNY     17  -4  39 NW9       30.54S WCI   6
LANSING*       SUNNY     18  -8  30 N5        30.54S WCI  11
JOLIET*        SUNNY     18  -5  35 NW6       30.55S WCI  10
WAUKEGAN       SUNNY     14  -5  42 W9        30.51F WCI   2
DUPAGE AIRPORT SUNNY     17  -4  39 NW8       30.52F WCI   7
KANKAKEE*      SUNNY     19  -3  39 NW6       30.55S WCI  10
WHEELING       SUNNY     16  -5  39 W9        30.55S WCI   4
MORRIS*        SUNNY     18  -3  39 NW7       30.51F WCI   8
ROMEOVILLE*    SUNNY     17  -7  33 NW8       30.54S WCI   7
NORTHERLY ISL    N/A     16 -10  31 W10         N/A  WCI   4
$$

LMZ740>746-132200-
SOUTHERN LAKE MICHIGAN

STATION/POSITION SKY/WX   TEMP    WIND        PRES    VSBY  WAVE
                          AIR SEA DIR/SP/G                  HT/PER
                          (F)     (DEG/KT/KT) (MB)    (MI)  (FT/S)
HARRISON CRIB              15     340/ 10/ 11   N/A
BURNHAM HARBOR             17     300/  4/ 13   N/A
CALUMET HARBOR             16     250/  4/  9 1033.3F
BURNS HARBOR               13     330/  3/ 11 1034.9F
MICHIGAN CITY              13     260/ 13/ 16   N/A
$$

ILZ025>027-034>036-040-047-049-050-058-095>099-132200-
WEST-CENTRAL ILLINOIS

CITY           SKY/WX    TMP DP  RH WIND       PRES   REMARKS
QUINCY         CLOUDY    17  -2  43 NE3       30.54F
GALESBURG*     CLOUDY    18  -5  35 W3        30.54F
MACOMB*        CLOUDY    20  -2  37 N5        30.57F WCI  14
JACKSONVILLE*  SUNNY     22   2  43 CALM      30.55F
PITTSFIELD*    CLOUDY    19   2  47 CALM      30.56S
$$

ILZ028>032-037-038-041>044-048-051>054-059>061-132200-
CENTRAL ILLINOIS

CITY           SKY/WX    TMP DP  RH WIND       PRES   REMARKS
PONTIAC        SUNNY     19  -2  39 NW6       30.56S WCI  11
BLOOMINGTON    SUNNY     19  -3  38 W5        30.54F WCI  12
DECATUR        SUNNY     21   0  39 N7        30.55F WCI  12
PEORIA         CLOUDY    20  -6  31 N6        30.56F WCI  12
LACON*         SUNNY     19  -7  31 W5        30.56S WCI  12
LINCOLN*       SUNNY     20  -1  38 CALM      30.56F
SPRINGFIELD    SUNNY     21  -1  38 VRB3      30.56F
TAYLORVILLE    SUNNY     19   3  49 N5        30.56F WCI  13
$$

ILZ033-039-045-046-055>057-062-063-132200-
EAST-CENTRAL ILLINOIS

CITY           SKY/WX    TMP DP  RH WIND       PRES   REMARKS
CHAMPAIGN      SUNNY     20  -1  40 N8        30.54F WCI  10
RANTOUL*       SUNNY     20   1  42 NW10      30.54S WCI   9
MATTOON        SUNNY     20   1  43 N7        30.54F WCI  11
PARIS*         SUNNY     20   3  47 NW8       30.55F WCI  10
$$

ILZ079-100>102-132200-
SOUTHWEST ILLINOIS

CITY           SKY/WX    TMP DP  RH WIND       PRES   REMARKS
ALTON          CLOUDY    19   0  42 NE5       30.56F WCI  13
BELLEVILLE     CLOUDY    23  -1  34 N7        30.55F WCI  15
CAHOKIA*       CLOUDY    23  -2  33 VRB6      30.56F WCI  16
SPARTA*        CLOUDY    22   4  46 N3        30.56F
$$

ILZ064>066-069>071-074>076-080>082-084>086-088>090-092>094-132200-
SOUTH-CENTRAL ILLINOIS

CITY           SKY/WX    TMP DP  RH WIND       PRES   REMARKS
CARBONDALE     CLOUDY    25   1  35 NE7       30.56F WCI  17
CAIRO*         PTSUNNY   27   7  42 NE6       30.56F WCI  21
EFFINGHAM*     SUNNY     21   5  50 NW6       30.57F WCI  14
MARION         PTSUNNY   25   0  33 N12       30.56F WCI  14
MT. VERNON     SUNNY     23   3  42 CALM      30.56F
CENTRALIA*     SUNNY     23   5  45 N7        30.55F WCI  15
SALEM*         SUNNY     24   3  41 N5        30.55F WCI  18
METROPOLIS*    PTSUNNY   28   6  38 NE6       30.55F WCI  22
$$

ILZ067-068-072-073-078-083-087-091-132200-
SOUTHEAST ILLINOIS

CITY           SKY/WX    TMP DP  RH WIND       PRES   REMARKS
LAWRENCEVILLE  SUNNY     23  -4  30 N10       30.57S WCI  12
FLORA*         SUNNY     24   1  36 NE7       30.57F WCI  16
FAIRFIELD*     SUNNY     23   1  38 NE3       30.56S
HARRISBURG*    SUNNY     24   6  47 N9        30.57F WCI  14
ROBINSON*      MOSUNNY   20  -2  37 NW6       30.58S WCI  13
CARMI*         SUNNY     23   4  44 N8        30.56F WCI  14
$$

ABBREVIATIONS USED IN REMARKS
   TC - TEMPERATURE IN CELSIUS
  WCI - WIND CHILL INDEX
   HX - HEAT INDEX
  VSB - VISIBILITY
$$




USA.gov is the U.S. government's official web portal to all federal, state and local government web resources and services.